Flag for U.S.A. Weather past 2 weeks in Shiprock, New Mexico, U.S.A.

Now
81 °F

Sunny.


Feels Like: 80 °F
Forecast: 72 / 92 °F
Wind: 8 mph from East

Location: Four Corners Regional Airport

Current Time: Jul 24, 2014 at 10:18:47 AM

Latest Report: Jul 24, 2014 at 9:53 AM


Visibility: 10 mi

Pressure: 30.06 "Hg

Humidity: 35%

Dew point: 51 °F

Location of ShiprockLocation

Historic Weather in Shiprock — Graph

°F

Shiprock temperature yesterday

Maximum temperature yesterday: 97 °F (at 4:53 PM)
Minimum temperature yesterday: 69 °F (at 6:53 AM)
Average temperature yesterday: 86 °F

Past Weeks' High & Low Weather Summary

 TemperatureHumidityPressure
High97 °F (Jul 22, 5:53 PM)76% (Jul 11, 1:53 AM)30.14 "Hg (Jul 11, 1:53 AM)
Low57 °F (Jul 22, 5:53 AM)7% (Jul 22, 5:53 PM)29.73 "Hg (Jul 17, 6:53 PM)
Average78 °F34%29.95 "Hg
* Reported Jul 9 8:53 AM — Jul 24 8:53 AM, Shiprock, Weather by CustomWeather, © 2014

Note: Actual official high and low records may vary slightly from our data, if they occured in-between our weather recording intervals... More about our weather records

Advertising

Shiprock weather history for previous 24 hours

 ConditionsComfort  
Time TempWeatherWind HumidityBarometerVisibility
8:53 AM
Jul 24
77 °FSunny.8 mph42%30.08 "Hg10 mi
7:53 AM72 °FSunny.10 mph48%30.09 "Hg10 mi
6:53 AM69 °FClear.12 mph51%30.07 "Hg10 mi
5:53 AM69 °FClear.12 mph51%30.07 "Hg10 mi
4:53 AM70 °FClear.8 mph49%30.06 "Hg10 mi
3:53 AM72 °FClear.12 mph46%30.04 "Hg10 mi
2:53 AM74 °FPassing clouds.8 mph43%30.05 "Hg10 mi
1:53 AM76 °FPassing clouds.9 mph40%30.07 "Hg10 mi
12:53 AM78 °FPassing clouds.10 mph37%30.07 "Hg10 mi
11:53 PM
Jul 23
78 °FClear.13 mph36%30.07 "Hg10 mi
10:53 PM79 °FClear.5 mph35%30.04 "Hg10 mi
9:53 PM82 °FClear.12 mph31%30.01 "Hg10 mi
8:53 PM84 °FSunny.21 mph30%29.98 "Hg10 mi
7:53 PM87 °FSunny.20 mph27%29.97 "Hg10 mi
6:53 PM94 °FPartly sunny.17 mph17%29.95 "Hg10 mi
5:53 PM95 °FSunny.14 mph14%29.95 "Hg10 mi
4:53 PM97 °FSunny.14 mph12%29.96 "Hg10 mi
3:53 PM96 °FSunny.10 mph13%29.98 "Hg10 mi
2:53 PM95 °FSunny.12 mph14%30.01 "Hg10 mi
1:53 PM94 °FSunny.12 mph15%30.03 "Hg10 mi
12:53 PM93 °FSunny.8 mph14%30.06 "Hg10 mi
11:53 AM90 °FSunny.7 mph19%30.09 "Hg10 mi
10:53 AM86 °FSunny.6 mph30%30.11 "Hg10 mi
Weather by CustomWeather, © 2014

See weather overviewHow to use our weather pages